Location: Runa
(38.1429°N, 80.8510°W)
Time: 10:38:37
(UTC+00:00)

Hubble Space Telescope - Visible Passes

Search period start: 18 April 2026 00:00
Search period end: 28 April 2026 00:00
Orbit: 474 x 477 km, 28.5° (Epoch: 17 April)

Date Brightness Start Highest point End Pass type
(mag) Time Alt. Az. Time Alt. Az. Time Alt. Az.
25 Apr 2.7 01:49:41 10° SW 01:50:46 14° SSW 01:50:46 14° SSW visible
26 Apr 2.3 01:18:27 10° SW 01:20:58 17° S 01:21:30 17° SSE visible
27 Apr 2.4 00:47:13 10° SW 00:49:44 17° S 00:52:09 10° SE visible
